SCP
0 0 0 0 0 0 0 0 0 0 0 0 0 0 0 0 0 0 0 0 0 0 0 0 0 0 0 0 0 0 0 0 1 1 0 0 1 1
0 0 0 0 0 0 0 0 0 0 0 0 0 0 0 0 0 0 0 0 0 0 0 0 0 0 0 0 0 0 0 0 0 0 0 0 1 1
0 0 0 0 0 0 0 0 0 0 0 0 0 0 0 0 0 1 1 1 0 0 0 0 0 0 0 0 0 0 0 0 0 0 0 0 1 1
0 0 0 0 0 0 0 0 0 0 0 0 0 0 0 0 1 1 1 0 0 0 0 0 0 0 0 0 0 0 0 0 0 0 0 0 0 0
0 0 0 0 0 0 0 0 0 0 0 0 0 0 0 0 0 0 0 0 0 0 0 0 0 0 0 0 0 0 0 0 0 0 0 0 0 0
0 0 0 0 0 0 0 0 0 0 0 0 0 0 0 0 0 0 0 0 0 0 0 0 0 0 0 0 0 0 0 0 0 0 0 0 0 0
0 0 0 0 0 0 0 0 0 0 0 0 0 0 0 0 0 0 0 0 0 0 0 0 0 0 0 0 0 0 0 0 0 0 0 0 0 0
0 0 0 0 0 0 0 0 0 0 0 0 0 0 0 0 0 0 0 0 0 0 0 0 0 0 0 0 0 0 0 0 0 0 0 0 0 0
0 0 0 0 0 0 0 0 0 0 0 0 0 0 0 0 0 0 0 0 0 0 0 0 0 0 0 0 0 0 0 0 0 0 0 0 0 0
0 0 0 0 0 0 0 0 0 0 0 0 0 0 0 0 0 0 0 0 0 0 0 0 0 0 0 0 0 0 0 0 0 0 0 0 0 0
0 0 0 0 0 0 0 0 0 0 0 0 0 0 0 0 0 0 0 0 0 0 0 0 0 0 0 0 0 0 0 0 0 0 0 0 0 0
0 0 0 0 0 0 0 0 0 0 0 0 0 0 0 0 0 0 0 0 0 0 0 0 0 0 0 0 0 0 0 0 0 0 0 0 0 0
0 0 0 0 0 0 0 0 0 0 0 0 0 0 0 0 0 0 0 0 0 0 0 0 0 0 0 0 0 0 0 0 0 0 0 0 0 0
0 0 0 0 0 0 0 0 0 0 0 0 0 0 0 0 0 0 0 0 0 0 0 0 0 0 0 0 0 0 0 0 0 0 0 0 0 0
0 0 0 0 0 0 0 0 0 0 0 0 0 0 0 0 0 0 0 0 0 0 0 0 0 0 0 0 0 0 0 0 0 0 0 0 0 0
0 0 0 0 0 0 0 0 0 0 0 0 0 0 1 0 0 0 0 0 0 0 0 0 0 0 0 0 0 0 0 0 0 0 0 0 0 0
0 0 0 0 0 0 0 0 0 0 0 0 0 0 0 0 0 0 0 0 0 0 0 0 0 0 0 0 0 0 0 0 0 0 0 0 0 0
0 0 0 0 0 0 0 0 0 0 0 0 0 0 0 0 0 0 0 0 0 0 0 0 0 0 0 0 0 0 0 0 0 0 0 0 0 0
0 0 0 0 0 0 0 0 0 0 0 0 0 0 0 0 0 0 0 0 0 0 0 0 0 0 0 0 0 0 0 0 0 0 0 0 0 0
0 0 0 0 0 0 0 0 0 0 0 0 0 0 0 0 0 0 0 0 0 0 0 0 0 0 0 0 0 0 0 0 0 0 0 0 0 0
0 0 0 0 0 0 0 0 0 0 0 0 0 0 0 0 0 0 0 0 0 0 0 0 0 0 0 0 0 0 0 0 0 0 0 0 0 0
0 0 0 0 0 0 0 0 0 0 0 0 0 0 0 0 0 0 0 0 0 0 0 0 0 0 0 0 0 0 0 0 0 0 0 0 0 0
0 0 0 0 0 0 0 0 0 0 0 0 0 0 0 0 0 0 0 0 0 0 0 0 0 0 0 0 0 0 0 0 0 0 0 0 0 0
Wind_Speed
2 2 1 1 1 1 1 2 3 1 1 2 2 2 2 1 2 2 2 5 6 7 8 8 8 9 10 10 10 10 10 9 8 8 8 8 8 8
2 2 2 1 1 1 1 1 2 3 1 2 1 2 2 2 3 2 2 5 6 6 7 7 7 7 8 8 8 8 9 9 8 8 8 8 8 8
2 3 2 2 2 1 1 1 1 2 2 1 1 2 2 2 3 2 2 2 3 6 6 6 6 7 7 7 7 7 7 8 8 8 8 8 8 8
2 2 2 2 2 2 1 1 1 1 2 1 1 2 2 2 2 2 2 2 2 5 6 6 6 6 6 6 6 7 7 7 7 7 7 8 8 8
2 2 1 2 2 1 1 1 1 1 1 1 1 1 1 2 2 2 3 3 3 3 5 5 5 6 6 6 6 6 6 6 6 6 7 7 7 7
1 1 1 1 1 1 1 1 1 2 2 1 0 1 1 2 1 1 2 3 3 3 4 4 5 6 6 6 6 5 5 5 5 6 6 6 7 7
1 1 0 1 1 1 1 1 2 1 1 1 0 1 1 1 1 1 1 2 2 2 2 3 3 3 3 5 6 6 6 6 5 5 6 6 7 7
0 1 1 1 1 1 1 2 4 3 2 1 1 1 2 2 1 1 0 1 3 2 1 3 2 2 3 2 4 6 6 6 6 6 6 6 7 7
1 1 0 1 1 1 2 3 2 1 2 3 2 3 2 3 1 1 1 1 2 2 1 3 2 3 3 3 6 6 6 6 7 7 6 6 7 7
2 2 2 1 1 2 2 1 1 1 1 2 3 3 2 2 3 2 2 1 2 2 0 2 2 3 4 3 6 6 6 6 7 7 7 7 7 7
2 2 2 2 2 2 2 1 1 2 2 1 0 1 2 2 1 1 1 1 2 2 1 1 2 3 3 3 4 7 7 7 7 7 8 8 8 7
1 1 2 3 2 2 2 2 1 2 1 2 2 3 3 3 2 1 2 1 1 2 1 1 2 2 3 2 2 3 4 6 8 8 9 9 8 5
1 1 1 2 2 3 3 3 3 2 0 0 1 2 2 2 1 1 1 2 2 3 2 1 1 1 2 4 3 3 3 4 4 5 8 9 9 6
2 2 2 2 2 1 1 2 2 1 1 1 1 1 2 2 2 2 2 2 3 4 3 2 2 2 2 4 5 4 3 4 3 4 5 7 8 8
2 3 2 1 1 0 0 1 0 1 1 0 1 2 2 2 2 2 2 2 2 3 2 2 2 2 2 4 4 4 4 4 3 4 4 5 5 5
1 1 1 1 1 0 1 1 0 1 2 2 2 2 1 1 1 1 2 2 2 3 3 3 3 3 3 5 5 5 5 4 4 5 5 5 5 5
2 1 1 1 1 0 0 1 0 0 1 1 1 1 2 2 2 1 1 1 2 3 4 3 3 4 5 5 5 6 5 5 5 5 5 6 6 6
3 1 1 1 1 1 1 1 1 1 2 2 2 2 2 2 2 2 1 2 3 4 4 3 3 3 3 4 6 6 5 5 5 5 5 6 8 6
2 1 1 2 2 2 2 2 2 2 2 2 2 2 2 2 2 2 2 3 3 4 4 3 2 3 5 7 5 5 5 6 6 6 6 6 8 8
1 2 2 2 2 2 2 2 2 2 1 2 2 2 2 2 3 3 3 3 4 4 4 3 3 3 5 7 7 6 6 6 6 7 7 6 7 9
2 2 2 2 2 2 2 2 2 2 2 2 2 2 2 3 3 3 4 6 5 4 5 5 5 6 5 4 6 6 5 7 8 7 7 7 8 7
2 2 2 2 2 2 2 2 2 2 2 2 3 3 3 3 4 4 4 4 4 5 6 5 4 4 3 5 7 8 8 7 7 10 11 10 7 8
2 2 2 2 2 2 2 2 2 2 2 3 3 3 3 3 3 4 4 4 4 5 5 5 4 4 5 5 7 8 10 9 7 7 7 10 15 17
Wind_Direction
79 86 88 72 100 117 134 146 141 131 314 310 319 327 334 351 2 15 9 20 29 32 31 33 34 33 34 34 34 32 33 32 29 26 24 23 23 23
66 76 66 50 70 87 112 113 128 149 195 280 284 311 337 7 20 21 11 15 19 23 26 30 30 29 29 31 31 29 27 25 24 23 21 17 16 17
60 75 63 57 65 67 88 99 104 125 154 286 309 325 349 359 356 2 7 7 3 16 22 24 24 23 24 28 30 28 25 22 19 19 18 16 16 14
74 78 65 72 63 60 79 94 117 142 151 208 319 337 341 343 345 354 4 9 358 9 11 13 15 14 16 19 20 20 18 15 11 8 7 6 5 5
102 98 88 89 67 58 70 72 74 89 118 150 283 326 327 343 358 358 3 354 355 5 4 4 1 4 7 8 8 6 5 4 1 356 353 353 353 354
97 109 118 134 163 149 102 101 97 80 81 91 11 338 328 326 11 358 350 352 346 354 355 356 357 357 356 357 356 354 354 352 351 350 349 346 343 341
39 357 39 146 158 161 143 156 131 110 96 86 31 354 333 332 325 314 322 326 326 340 337 340 344 342 342 342 344 344 345 344 341 340 341 339 332 329
146 320 331 345 30 76 126 134 141 143 158 153 192 239 271 262 266 291 330 2 318 325 346 317 335 315 311 308 322 330 334 335 335 333 332 334 331 326
190 214 345 34 72 83 61 56 60 104 162 167 185 227 242 239 215 256 243 227 254 292 343 299 310 297 298 313 316 319 325 328 330 330 327 327 327 323
207 204 210 253 182 147 118 79 22 334 275 204 203 228 240 232 202 211 220 255 287 302 338 281 300 294 303 303 313 320 326 327 325 325 323 321 320 317
232 218 209 223 224 166 135 140 339 318 335 14 235 302 323 325 134 105 64 28 308 300 291 254 291 303 298 293 307 320 322 323 322 321 319 316 313 310
259 267 237 214 221 181 165 167 223 275 317 357 1 352 347 344 7 163 186 194 262 290 285 266 292 324 310 293 301 314 315 313 314 315 315 312 310 306
212 255 257 222 222 206 184 188 218 228 216 328 343 340 341 342 338 305 206 192 204 250 261 218 273 285 271 295 301 292 295 299 307 306 308 307 304 299
205 224 222 197 195 199 197 209 220 147 99 60 5 327 321 314 302 296 272 238 226 241 251 212 233 239 265 285 289 295 295 289 289 294 300 307 303 299
203 200 192 171 131 1 249 226 191 134 132 140 271 274 269 275 294 309 315 298 287 277 271 239 239 248 241 260 278 285 298 293 282 290 296 295 292 296
191 151 112 84 88 67 7 350 143 175 179 213 250 267 287 302 305 299 304 314 316 306 292 270 255 245 258 263 266 278 278 282 292 290 291 289 286 280
134 95 72 65 62 17 351 329 289 225 243 242 246 274 290 295 290 284 282 291 285 294 304 305 282 262 250 253 269 271 276 279 280 287 292 292 285 281
124 133 179 201 213 223 233 262 256 238 238 238 246 256 272 281 289 293 283 273 277 282 285 294 311 318 309 275 237 262 276 281 289 288 281 287 291 288
135 173 195 215 225 226 223 226 246 251 238 231 244 257 266 273 278 285 284 284 283 281 281 281 284 295 303 303 283 233 267 289 292 289 282 279 284 290
171 196 212 222 226 227 229 233 249 265 254 247 252 262 262 268 277 281 278 277 283 287 293 288 275 273 277 285 289 286 262 272 284 287 290 288 282 283
208 215 220 225 232 235 234 233 235 246 255 255 261 263 264 265 272 276 279 285 284 285 288 286 280 281 282 284 288 289 281 266 269 278 287 292 295 294
211 217 228 230 232 236 238 238 242 253 260 259 263 266 268 266 272 279 279 282 281 282 285 290 297 298 285 282 288 293 296 296 286 278 269 266 278 285
217 220 226 230 234 237 239 243 248 260 262 266 269 270 270 268 271 273 277 280 287 292 299 303 305 295 286 282 287 292 296 301 302 301 293 281 276 276